QPF
0.00 0.00 0.00 0.00 0.00 0.00 0.00 0.00 0.00 0.00 0.00 0.00 0.00 0.00 0.00 0.00 0.00 0.00 0.00 0.00 0.00 0.00 0.00 0.00 0.00 0.00 0.00 0.00 0.00 0.00 0.00 0.00 0.00 0.00 0.00 0.00 0.00 0.00 0.00 0.00 0.00 0.00 0.00
0.00 0.00 0.00 0.00 0.00 0.00 0.00 0.00 0.00 0.00 0.00 0.00 0.00 0.00 0.00 0.00 0.00 0.00 0.00 0.00 0.00 0.00 0.00 0.00 0.00 0.00 0.00 0.00 0.00 0.00 0.00 0.00 0.00 0.00 0.00 0.00 0.00 0.00 0.00 0.00 0.00 0.00 0.00
0.00 0.00 0.00 0.00 0.00 0.00 0.00 0.00 0.00 0.00 0.00 0.00 0.00 0.00 0.00 0.00 0.00 0.00 0.00 0.00 0.00 0.00 0.00 0.00 0.00 0.00 0.00 0.00 0.00 0.00 0.00 0.00 0.00 0.00 0.00 0.00 0.00 0.00 0.00 0.00 0.00 0.00 0.00
0.00 0.00 0.00 0.00 0.00 0.00 0.00 0.00 0.00 0.00 0.00 0.00 0.00 0.00 0.00 0.00 0.00 0.00 0.00 0.00 0.00 0.00 0.00 0.00 0.00 0.00 0.00 0.00 0.00 0.00 0.00 0.00 0.00 0.00 0.00 0.01 0.01 0.01 0.00 0.00 0.00 0.00 0.00
0.00 0.00 0.00 0.00 0.00 0.00 0.00 0.00 0.00 0.00 0.00 0.00 0.00 0.00 0.00 0.00 0.00 0.00 0.00 0.00 0.00 0.00 0.00 0.00 0.00 0.00 0.00 0.00 0.00 0.00 0.00 0.00 0.00 0.00 0.00 0.00 0.02 0.01 0.02 0.01 0.00 0.00 0.00
0.00 0.00 0.00 0.00 0.00 0.00 0.00 0.00 0.00 0.00 0.00 0.00 0.00 0.00 0.00 0.00 0.00 0.00 0.00 0.00 0.00 0.00 0.00 0.00 0.00 0.00 0.00 0.00 0.00 0.00 0.00 0.00 0.00 0.00 0.00 0.00 0.01 0.03 0.04 0.03 0.02 0.01 0.00
0.00 0.00 0.00 0.00 0.00 0.00 0.00 0.00 0.00 0.00 0.00 0.00 0.00 0.00 0.00 0.00 0.00 0.00 0.00 0.00 0.00 0.00 0.00 0.00 0.00 0.00 0.00 0.00 0.00 0.00 0.00 0.00 0.00 0.00 0.00 0.00 0.01 0.02 0.05 0.05 0.04 0.02 0.01
0.00 0.00 0.00 0.00 0.00 0.00 0.00 0.00 0.00 0.00 0.00 0.00 0.00 0.00 0.00 0.00 0.00 0.00 0.00 0.00 0.00 0.00 0.00 0.00 0.00 0.00 0.00 0.00 0.00 0.00 0.00 0.00 0.00 0.00 0.00 0.00 0.01 0.02 0.05 0.05 0.04 0.03 0.02
0.00 0.00 0.00 0.00 0.00 0.00 0.00 0.00 0.00 0.00 0.00 0.00 0.00 0.00 0.00 0.00 0.00 0.00 0.00 0.00 0.00 0.00 0.00 0.00 0.00 0.00 0.00 0.00 0.00 0.00 0.00 0.00 0.00 0.00 0.00 0.00 0.01 0.04 0.08 0.06 0.04 0.02 0.02
0.00 0.00 0.00 0.00 0.00 0.00 0.00 0.00 0.00 0.00 0.00 0.00 0.00 0.00 0.00 0.00 0.00 0.00 0.00 0.00 0.00 0.00 0.00 0.00 0.00 0.00 0.00 0.00 0.00 0.00 0.00 0.00 0.00 0.00 0.00 0.00 0.01 0.05 0.09 0.06 0.04 0.03 0.02
0.00 0.00 0.00 0.00 0.00 0.00 0.00 0.00 0.00 0.00 0.00 0.00 0.00 0.00 0.00 0.00 0.00 0.00 0.00 0.00 0.00 0.00 0.00 0.00 0.00 0.00 0.00 0.00 0.01 0.01 0.01 0.00 0.00 0.00 0.00 0.00 0.01 0.05 0.08 0.06 0.04 0.03 0.02
0.00 0.00 0.00 0.00 0.00 0.00 0.00 0.00 0.00 0.00 0.00 0.00 0.00 0.00 0.00 0.00 0.00 0.00 0.00 0.00 0.00 0.00 0.00 0.00 0.00 0.00 0.00 0.00 0.00 0.02 0.01 0.00 0.00 0.00 0.01 0.00 0.01 0.03 0.06 0.05 0.04 0.03 0.02
0.00 0.00 0.00 0.00 0.00 0.00 0.00 0.00 0.00 0.00 0.00 0.00 0.00 0.00 0.00 0.00 0.00 0.00 0.00 0.00 0.00 0.00 0.00 0.00 0.00 0.00 0.00 0.00 0.00 0.01 0.00 0.00 0.00 0.01 0.01 0.00 0.00 0.02 0.04 0.03 0.02 0.02 0.02
0.00 0.00 0.00 0.00 0.00 0.00 0.00 0.00 0.00 0.00 0.00 0.00 0.00 0.00 0.00 0.00 0.00 0.00 0.00 0.00 0.00 0.00 0.01 0.01 0.01 0.00 0.01 0.01 0.01 0.01 0.02 0.01 0.01 0.01 0.01 0.00 0.00 0.01 0.03 0.03 0.02 0.02 0.02
0.00 0.00 0.00 0.00 0.01 0.00 0.00 0.00 0.00 0.00 0.00 0.00 0.00 0.00 0.00 0.00 0.00 0.00 0.00 0.00 0.00 0.00 0.01 0.01 0.01 0.02 0.02 0.02 0.02 0.02 0.03 0.03 0.02 0.01 0.01 0.00 0.01 0.01 0.02 0.03 0.03 0.03 0.03
0.02 0.02 0.01 0.01 0.01 0.01 0.00 0.00 0.00 0.00 0.00 0.00 0.00 0.00 0.00 0.00 0.00 0.00 0.00 0.00 0.00 0.00 0.01 0.01 0.02 0.03 0.03 0.03 0.03 0.03 0.03 0.04 0.03 0.03 0.02 0.01 0.02 0.01 0.01 0.03 0.05 0.06 0.05
0.18 0.11 0.04 0.03 0.04 0.03 0.01 0.01 0.01 0.01 0.01 0.01 0.00 0.00 0.01 0.01 0.01 0.01 0.01 0.02 0.02 0.02 0.02 0.03 0.03 0.04 0.05 0.05 0.04 0.04 0.04 0.05 0.06 0.05 0.04 0.04 0.03 0.02 0.02 0.02 0.04 0.06 0.07
0.20 0.16 0.14 0.15 0.15 0.09 0.07 0.06 0.04 0.03 0.03 0.03 0.03 0.03 0.03 0.03 0.04 0.05 0.05 0.05 0.05 0.05 0.06 0.06 0.07 0.07 0.06 0.06 0.06 0.05 0.04 0.06 0.06 0.05 0.04 0.04 0.04 0.03 0.02 0.03 0.04 0.06 0.08
0.23 0.28 0.32 0.33 0.30 0.24 0.20 0.14 0.10 0.09 0.07 0.05 0.05 0.07 0.07 0.10 0.11 0.12 0.11 0.12 0.15 0.14 0.14 0.14 0.13 0.11 0.09 0.10 0.10 0.07 0.05 0.04 0.03 0.03 0.04 0.04 0.05 0.04 0.02 0.03 0.03 0.04 0.07
0.21 0.25 0.22 0.23 0.33 0.45 0.45 0.39 0.31 0.19 0.13 0.11 0.09 0.10 0.12 0.16 0.20 0.23 0.23 0.26 0.30 0.29 0.26 0.24 0.20 0.15 0.12 0.12 0.12 0.07 0.04 0.04 0.03 0.02 0.02 0.02 0.02 0.02 0.02 0.03 0.03 0.03 0.06
0.17 0.18 0.19 0.27 0.36 0.44 0.40 0.29 0.22 0.17 0.18 0.15 0.15 0.14 0.16 0.19 0.25 0.31 0.35 0.40 0.42 0.38 0.36 0.33 0.26 0.20 0.17 0.17 0.13 0.07 0.03 0.02 0.01 0.01 0.01 0.01 0.01 0.01 0.02 0.02 0.03 0.04 0.05
0.09 0.09 0.10 0.12 0.15 0.19 0.22 0.19 0.16 0.17 0.15 0.13 0.14 0.13 0.16 0.22 0.29 0.33 0.38 0.39 0.40 0.39 0.35 0.28 0.25 0.19 0.14 0.14 0.13 0.10 0.06 0.03 0.02 0.02 0.02 0.03 0.04 0.04 0.03 0.03 0.04 0.06 0.07
0.02 0.03 0.03 0.03 0.04 0.06 0.08 0.11 0.13 0.14 0.12 0.11 0.12 0.12 0.14 0.23 0.29 0.33 0.35 0.44 0.50 0.47 0.34 0.27 0.25 0.19 0.13 0.12 0.13 0.13 0.09 0.07 0.06 0.03 0.03 0.04 0.07 0.08 0.08 0.07 0.07 0.06 0.07
0.00 0.00 0.01 0.01 0.01 0.02 0.03 0.05 0.07 0.07 0.08 0.10 0.11 0.10 0.13 0.19 0.22 0.28 0.34 0.38 0.38 0.34 0.27 0.24 0.21 0.17 0.14 0.12 0.12 0.11 0.11 0.12 0.11 0.06 0.03 0.03 0.04 0.06 0.06 0.06 0.06 0.06 0.09
0.00 0.00 0.00 0.00 0.00 0.00 0.01 0.01 0.02 0.02 0.03 0.04 0.05 0.07 0.08 0.12 0.16 0.21 0.25 0.27 0.24 0.24 0.22 0.19 0.16 0.14 0.12 0.10 0.09 0.09 0.10 0.12 0.16 0.13 0.07 0.04 0.02 0.02 0.03 0.03 0.04 0.05 0.07
0.00 0.00 0.00 0.00 0.00 0.00 0.00 0.00 0.00 0.01 0.01 0.01 0.02 0.04 0.05 0.06 0.06 0.08 0.12 0.16 0.17 0.18 0.17 0.16 0.15 0.12 0.11 0.09 0.08 0.10 0.11 0.12 0.14 0.15 0.10 0.07 0.03 0.02 0.02 0.03 0.02 0.03 0.05
MSLP
1012.47 1012.13 1011.99 1012.09 1012.41 1012.87 1013.38 1013.82 1014.13 1014.29 1014.32 1014.28 1014.23 1014.24 1014.34 1014.53 1014.76 1015.00 1015.20 1015.32 1015.37 1015.36 1015.33 1015.32 1015.35 1015.43 1015.55 1015.69 1015.83 1015.93 1015.98 1016.00 1015.99 1015.98 1015.97 1015.99 1016.02 1016.06 1016.11 1016.14 1016.16 1016.17 1016.18
1012.01 1011.82 1011.82 1012.03 1012.43 1012.93 1013.43 1013.85 1014.12 1014.26 1014.28 1014.26 1014.26 1014.33 1014.48 1014.71 1014.97 1015.22 1015.40 1015.50 1015.52 1015.49 1015.44 1015.42 1015.44 1015.52 1015.64 1015.77 1015.89 1015.98 1016.03 1016.05 1016.05 1016.05 1016.07 1016.10 1016.15 1016.20 1016.23 1016.25 1016.26 1016.26 1016.26
1011.57 1011.50 1011.62 1011.94 1012.40 1012.93 1013.42 1013.81 1014.06 1014.18 1014.21 1014.21 1014.26 1014.38 1014.58 1014.85 1015.12 1015.35 1015.51 1015.58 1015.57 1015.51 1015.46 1015.43 1015.46 1015.53 1015.64 1015.76 1015.87 1015.94 1015.98 1016.01 1016.03 1016.06 1016.11 1016.17 1016.24 1016.30 1016.33 1016.34 1016.33 1016.32 1016.33
1011.19 1011.23 1011.45 1011.84 1012.35 1012.88 1013.36 1013.73 1013.95 1014.06 1014.10 1014.14 1014.23 1014.39 1014.63 1014.91 1015.17 1015.38 1015.51 1015.54 1015.51 1015.44 1015.39 1015.37 1015.40 1015.48 1015.59 1015.69 1015.78 1015.84 1015.88 1015.91 1015.95 1016.01 1016.09 1016.19 1016.28 1016.35 1016.38 1016.38 1016.37 1016.36 1016.37
1010.93 1011.04 1011.33 1011.77 1012.29 1012.82 1013.27 1013.61 1013.81 1013.91 1013.97 1014.04 1014.16 1014.36 1014.61 1014.89 1015.14 1015.31 1015.40 1015.41 1015.36 1015.29 1015.25 1015.25 1015.30 1015.40 1015.51 1015.60 1015.67 1015.72 1015.74 1015.77 1015.82 1015.90 1016.01 1016.13 1016.24 1016.31 1016.35 1016.34 1016.32 1016.31 1016.34
1010.80 1010.96 1011.29 1011.74 1012.26 1012.76 1013.18 1013.47 1013.65 1013.75 1013.82 1013.91 1014.07 1014.29 1014.55 1014.81 1015.02 1015.16 1015.21 1015.19 1015.13 1015.08 1015.06 1015.10 1015.18 1015.30 1015.41 1015.50 1015.56 1015.58 1015.59 1015.60 1015.65 1015.74 1015.86 1015.99 1016.10 1016.17 1016.20 1016.19 1016.16 1016.16 1016.21
1010.78 1010.98 1011.32 1011.78 1012.27 1012.73 1013.09 1013.34 1013.49 1013.58 1013.66 1013.78 1013.96 1014.19 1014.45 1014.69 1014.87 1014.97 1014.98 1014.93 1014.87 1014.83 1014.85 1014.92 1015.04 1015.18 1015.31 1015.39 1015.43 1015.42 1015.40 1015.39 1015.43 1015.50 1015.61 1015.73 1015.84 1015.90 1015.92 1015.90 1015.87 1015.87 1015.93
1010.84 1011.07 1011.42 1011.86 1012.31 1012.71 1013.02 1013.22 1013.34 1013.42 1013.51 1013.65 1013.85 1014.09 1014.34 1014.56 1014.70 1014.75 1014.73 1014.66 1014.59 1014.56 1014.60 1014.71 1014.86 1015.03 1015.16 1015.24 1015.26 1015.22 1015.17 1015.13 1015.13 1015.18 1015.26 1015.37 1015.45 1015.50 1015.51 1015.48 1015.45 1015.46 1015.53
1010.92 1011.18 1011.54 1011.96 1012.37 1012.71 1012.95 1013.11 1013.19 1013.26 1013.36 1013.52 1013.74 1014.00 1014.24 1014.43 1014.53 1014.54 1014.48 1014.38 1014.30 1014.27 1014.33 1014.46 1014.63 1014.81 1014.95 1015.02 1015.02 1014.96 1014.87 1014.79 1014.75 1014.77 1014.82 1014.90 1014.96 1015.00 1015.00 1014.97 1014.94 1014.95 1015.03
1010.96 1011.26 1011.64 1012.04 1012.41 1012.69 1012.88 1012.98 1013.04 1013.10 1013.21 1013.39 1013.63 1013.89 1014.13 1014.29 1014.36 1014.33 1014.23 1014.10 1014.00 1013.96 1014.02 1014.15 1014.34 1014.52 1014.66 1014.72 1014.70 1014.62 1014.50 1014.39 1014.31 1014.29 1014.31 1014.36 1014.41 1014.43 1014.43 1014.41 1014.39 1014.41 1014.50
1010.93 1011.28 1011.68 1012.07 1012.40 1012.64 1012.77 1012.83 1012.87 1012.93 1013.04 1013.24 1013.49 1013.75 1013.98 1014.13 1014.17 1014.11 1013.97 1013.81 1013.68 1013.63 1013.67 1013.80 1013.98 1014.15 1014.29 1014.34 1014.31 1014.21 1014.07 1013.93 1013.82 1013.77 1013.76 1013.78 1013.81 1013.84 1013.85 1013.85 1013.85 1013.89 1013.99
1010.81 1011.22 1011.64 1012.03 1012.33 1012.52 1012.61 1012.64 1012.66 1012.71 1012.83 1013.03 1013.28 1013.55 1013.77 1013.91 1013.93 1013.84 1013.68 1013.50 1013.35 1013.28 1013.31 1013.41 1013.58 1013.74 1013.87 1013.92 1013.88 1013.78 1013.62 1013.46 1013.32 1013.23 1013.19 1013.19 1013.22 1013.25 1013.28 1013.31 1013.35 1013.42 1013.53
1010.63 1011.09 1011.54 1011.91 1012.19 1012.34 1012.40 1012.40 1012.40 1012.44 1012.55 1012.75 1012.99 1013.25 1013.46 1013.58 1013.59 1013.50 1013.33 1013.14 1012.99 1012.91 1012.93 1013.02 1013.17 1013.33 1013.45 1013.50 1013.46 1013.35 1013.19 1013.01 1012.84 1012.72 1012.64 1012.62 1012.63 1012.66 1012.72 1012.79 1012.87 1012.98 1013.12
1010.44 1010.93 1011.38 1011.74 1011.99 1012.12 1012.15 1012.13 1012.10 1012.13 1012.22 1012.39 1012.61 1012.84 1013.02 1013.13 1013.14 1013.05 1012.90 1012.74 1012.60 1012.54 1012.55 1012.65 1012.79 1012.94 1013.06 1013.11 1013.08 1012.97 1012.80 1012.60 1012.41 1012.24 1012.12 1012.05 1012.03 1012.06 1012.13 1012.24 1012.37 1012.53 1012.71
1010.29 1010.78 1011.21 1011.54 1011.76 1011.87 1011.88 1011.84 1011.80 1011.79 1011.85 1011.98 1012.15 1012.33 1012.47 1012.56 1012.57 1012.50 1012.39 1012.27 1012.18 1012.16 1012.20 1012.31 1012.46 1012.62 1012.74 1012.80 1012.77 1012.66 1012.48 1012.26 1012.02 1011.79 1011.61 1011.48 1011.42 1011.42 1011.49 1011.62 1011.80 1012.00 1012.23
1010.23 1010.67 1011.06 1011.36 1011.54 1011.63 1011.62 1011.57 1011.51 1011.47 1011.48 1011.54 1011.63 1011.74 1011.83 1011.88 1011.89 1011.86 1011.80 1011.75 1011.73 1011.76 1011.86 1012.01 1012.18 1012.35 1012.49 1012.55 1012.54 1012.43 1012.23 1011.98 1011.68 1011.39 1011.12 1010.90 1010.77 1010.72 1010.77 1010.90 1011.10 1011.35 1011.62
1010.27 1010.64 1010.97 1011.21 1011.36 1011.42 1011.41 1011.36 1011.28 1011.20 1011.15 1011.12 1011.11 1011.12 1011.14 1011.15 1011.15 1011.14 1011.15 1011.18 1011.25 1011.36 1011.52 1011.72 1011.93 1012.12 1012.28 1012.36 1012.35 1012.24 1012.03 1011.74 1011.39 1011.01 1010.65 1010.34 1010.10 1009.98 1009.97 1010.08 1010.29 1010.56 1010.86
1010.40 1010.68 1010.92 1011.10 1011.21 1011.27 1011.26 1011.21 1011.11 1011.00 1010.87 1010.75 1010.63 1010.53 1010.45 1010.40 1010.38 1010.40 1010.47 1010.58 1010.74 1010.94 1011.18 1011.43 1011.68 1011.90 1012.07 1012.17 1012.17 1012.07 1011.86 1011.54 1011.14 1010.69 1010.23 1009.81 1009.47 1009.25 1009.16 1009.22 1009.40 1009.67 1009.99
1010.58 1010.76 1010.90 1011.01 1011.10 1011.14 1011.15 1011.11 1011.01 1010.87 1010.68 1010.45 1010.22 1010.01 1009.83 1009.70 1009.65 1009.69 1009.80 1009.98 1010.22 1010.50 1010.81 1011.11 1011.40 1011.65 1011.84 1011.96 1011.98 1011.90 1011.69 1011.36 1010.93 1010.43 1009.89 1009.37 1008.93 1008.60 1008.42 1008.41 1008.53 1008.78 1009.09
1010.76 1010.82 1010.87 1010.93 1010.98 1011.03 1011.06 1011.03 1010.95 1010.78 1010.54 1010.24 1009.90 1009.57 1009.29 1009.09 1009.00 1009.03 1009.17 1009.40 1009.71 1010.05 1010.40 1010.75 1011.07 1011.34 1011.56 1011.70 1011.75 1011.70 1011.52 1011.21 1010.78 1010.26 1009.67 1009.09 1008.56 1008.13 1007.86 1007.75 1007.81 1008.00 1008.27
1010.87 1010.83 1010.80 1010.80 1010.83 1010.89 1010.94 1010.95 1010.88 1010.72 1010.44 1010.07 1009.65 1009.23 1008.86 1008.59 1008.45 1008.46 1008.61 1008.87 1009.21 1009.58 1009.97 1010.34 1010.67 1010.96 1011.20 1011.38 1011.47 1011.46 1011.34 1011.08 1010.69 1010.19 1009.60 1008.99 1008.40 1007.91 1007.55 1007.36 1007.33 1007.44 1007.65
1010.87 1010.76 1010.66 1010.62 1010.63 1010.70 1010.78 1010.82 1010.79 1010.63 1010.34 1009.94 1009.46 1008.97 1008.53 1008.19 1008.01 1007.99 1008.12 1008.38 1008.73 1009.12 1009.51 1009.88 1010.22 1010.52 1010.78 1010.98 1011.12 1011.18 1011.14 1010.96 1010.65 1010.21 1009.67 1009.07 1008.48 1007.95 1007.53 1007.26 1007.14 1007.16 1007.29
1010.75 1010.58 1010.44 1010.36 1010.37 1010.45 1010.56 1010.64 1010.63 1010.50 1010.23 1009.81 1009.31 1008.78 1008.29 1007.90 1007.67 1007.61 1007.71 1007.95 1008.28 1008.65 1009.03 1009.39 1009.72 1010.02 1010.29 1010.53 1010.72 1010.85 1010.90 1010.83 1010.63 1010.29 1009.84 1009.31 1008.75 1008.22 1007.78 1007.44 1007.25 1007.17 1007.21
1010.51 1010.31 1010.15 1010.06 1010.07 1010.16 1010.28 1010.39 1010.43 1010.33 1010.08 1009.68 1009.18 1008.63 1008.11 1007.69 1007.42 1007.31 1007.37 1007.56 1007.84 1008.17 1008.52 1008.85 1009.17 1009.46 1009.74 1010.01 1010.26 1010.47 1010.61 1010.65 1010.57 1010.36 1010.03 1009.60 1009.12 1008.63 1008.19 1007.83 1007.57 1007.42 1007.36
1010.19 1010.00 1009.84 1009.75 1009.76 1009.85 1010.00 1010.13 1010.20 1010.14 1009.92 1009.56 1009.07 1008.53 1008.00 1007.54 1007.22 1007.06 1007.06 1007.19 1007.41 1007.69 1007.99 1008.29 1008.58 1008.87 1009.16 1009.46 1009.75 1010.02 1010.25 1010.40 1010.44 1010.36 1010.15 1009.85 1009.47 1009.06 1008.66 1008.30 1008.01 1007.79 1007.65
1009.86 1009.69 1009.55 1009.47 1009.49 1009.59 1009.74 1009.89 1009.99 1009.96 1009.79 1009.45 1009.00 1008.46 1007.93 1007.45 1007.08 1006.85 1006.78 1006.83 1006.98 1007.20 1007.44 1007.71 1007.98 1008.26 1008.55 1008.87 1009.19 1009.52 1009.81 1010.05 1010.20 1010.23 1010.16 1009.98 1009.71 1009.40 1009.07 1008.74 1008.45 1008.21 1008.01
Thickness
5826 5827 5824 5820 5816 5813 5810 5808 5806 5804 5802 5800 5797 5795 5793 5790 5788 5786 5783 5781 5778 5776 5774 5771 5770 5768 5766 5765 5763 5762 5760 5758 5757 5755 5754 5753 5752 5751 5750 5749 5749 5747 5746
5834 5830 5826 5822 5819 5815 5812 5809 5806 5804 5802 5800 5798 5795 5793 5790 5788 5786 5784 5781 5779 5777 5774 5772 5770 5768 5766 5765 5763 5761 5760 5758 5757 5755 5753 5752 5751 5750 5750 5750 5748 5747 5746
5836 5831 5828 5824 5821 5817 5814 5810 5807 5805 5802 5800 5797 5795 5793 5791 5788 5786 5784 5782 5780 5777 5775 5773 5770 5768 5766 5764 5763 5761 5760 5758 5756 5755 5753 5751 5750 5750 5750 5749 5748 5747 5746
5838 5833 5829 5826 5822 5819 5815 5812 5809 5806 5803 5800 5798 5795 5793 5791 5789 5787 5785 5783 5780 5778 5776 5773 5771 5769 5767 5765 5763 5761 5760 5758 5757 5755 5753 5752 5751 5750 5750 5749 5749 5747 5746
5838 5834 5831 5827 5824 5820 5817 5813 5810 5807 5803 5801 5798 5796 5794 5791 5789 5787 5785 5783 5781 5779 5777 5775 5772 5770 5768 5765 5763 5762 5760 5759 5757 5756 5754 5753 5752 5751 5750 5750 5749 5748 5747
5837 5834 5831 5827 5824 5821 5817 5814 5811 5807 5804 5802 5799 5797 5795 5792 5790 5788 5786 5784 5782 5780 5778 5776 5774 5771 5769 5767 5765 5763 5761 5760 5759 5758 5756 5755 5755 5753 5752 5751 5751 5749 5748
5837 5833 5830 5827 5823 5820 5817 5814 5811 5808 5805 5802 5800 5797 5795 5793 5791 5789 5787 5784 5782 5780 5779 5777 5775 5773 5771 5769 5767 5765 5764 5762 5761 5760 5759 5757 5757 5756 5754 5753 5753 5751 5750
5838 5833 5829 5826 5822 5819 5816 5813 5810 5807 5804 5802 5800 5797 5795 5793 5791 5789 5787 5785 5783 5781 5779 5777 5776 5774 5772 5771 5769 5767 5766 5764 5763 5763 5762 5760 5759 5758 5756 5755 5754 5753 5751
5837 5832 5829 5825 5822 5818 5815 5812 5809 5807 5804 5801 5799 5797 5795 5793 5791 5789 5787 5785 5783 5781 5780 5778 5776 5775 5773 5772 5771 5769 5768 5767 5765 5764 5763 5763 5761 5760 5758 5757 5756 5755 5753
5834 5831 5828 5824 5821 5818 5814 5812 5809 5806 5803 5801 5798 5796 5794 5792 5790 5788 5786 5785 5783 5782 5780 5779 5777 5775 5774 5772 5771 5770 5769 5768 5768 5766 5765 5765 5764 5762 5760 5759 5758 5756 5754
5830 5827 5825 5822 5819 5816 5813 5810 5807 5804 5802 5800 5798 5796 5793 5792 5790 5788 5786 5784 5783 5782 5780 5779 5777 5775 5774 5773 5772 5771 5770 5770 5769 5768 5768 5768 5767 5765 5763 5762 5760 5758 5756
5826 5824 5823 5820 5817 5813 5811 5808 5805 5803 5800 5798 5796 5794 5792 5790 5788 5787 5786 5784 5783 5781 5780 5778 5776 5774 5773 5772 5772 5770 5770 5770 5770 5769 5769 5770 5769 5768 5767 5765 5763 5761 5758
5829 5825 5821 5818 5815 5812 5809 5806 5803 5801 5798 5796 5794 5792 5790 5788 5786 5785 5784 5783 5782 5781 5779 5777 5775 5774 5772 5771 5771 5770 5769 5769 5769 5770 5770 5771 5771 5770 5770 5768 5766 5763 5760
5828 5825 5822 5817 5813 5810 5807 5804 5801 5798 5796 5794 5793 5791 5788 5786 5784 5783 5782 5782 5781 5780 5778 5776 5774 5773 5771 5770 5768 5768 5768 5768 5768 5769 5770 5770 5771 5771 5771 5770 5767 5764 5762
5828 5825 5822 5817 5811 5808 5804 5801 5798 5795 5794 5793 5792 5789 5786 5785 5783 5782 5782 5781 5780 5778 5777 5775 5772 5771 5769 5768 5767 5766 5766 5766 5767 5767 5768 5769 5770 5771 5771 5770 5768 5765 5762
5825 5823 5820 5814 5810 5805 5801 5799 5797 5793 5791 5790 5789 5788 5785 5783 5782 5781 5780 5779 5778 5777 5775 5773 5771 5768 5767 5766 5764 5764 5764 5764 5764 5765 5766 5767 5768 5769 5769 5768 5767 5765 5763
5819 5816 5812 5807 5804 5799 5796 5794 5793 5791 5789 5788 5787 5786 5784 5782 5780 5778 5777 5776 5775 5774 5772 5769 5767 5765 5763 5762 5760 5760 5760 5760 5760 5761 5762 5763 5765 5765 5766 5766 5766 5765 5764
5810 5805 5800 5798 5794 5791 5788 5786 5785 5785 5785 5784 5783 5782 5781 5780 5778 5776 5773 5771 5770 5768 5766 5763 5760 5757 5756 5754 5754 5754 5755 5755 5755 5756 5758 5759 5760 5762 5763 5764 5765 5765 5763
5798 5795 5791 5790 5785 5782 5780 5777 5776 5778 5778 5778 5777 5776 5776 5775 5773 5771 5769 5767 5764 5760 5757 5755 5752 5749 5747 5746 5746 5747 5748 5749 5749 5751 5752 5754 5755 5757 5759 5762 5763 5764 5763
5790 5786 5781 5778 5774 5774 5771 5766 5764 5766 5770 5771 5771 5771 5770 5769 5768 5766 5764 5760 5756 5751 5748 5746 5743 5742 5740 5738 5738 5739 5741 5742 5744 5745 5746 5748 5751 5752 5755 5757 5760 5761 5761
5781 5777 5772 5768 5765 5762 5759 5756 5755 5756 5760 5762 5764 5765 5764 5763 5762 5760 5758 5754 5750 5746 5743 5739 5736 5733 5732 5731 5726 5726 5731 5735 5737 5740 5740 5741 5743 5746 5750 5753 5755 5756 5758
5775 5770 5766 5761 5757 5754 5751 5750 5750 5751 5753 5755 5756 5757 5757 5756 5755 5754 5752 5749 5745 5740 5737 5734 5731 5728 5726 5724 5719 5714 5714 5720 5727 5733 5732 5733 5735 5738 5742 5746 5748 5751 5752
5771 5766 5761 5755 5751 5748 5745 5742 5741 5741 5742 5743 5745 5746 5748 5748 5748 5747 5746 5744 5741 5735 5732 5730 5727 5723 5719 5718 5716 5709 5704 5704 5712 5720 5723 5725 5727 5728 5731 5736 5740 5743 5745
5768 5764 5758 5752 5747 5743 5740 5735 5731 5728 5727 5730 5733 5736 5738 5739 5740 5740 5739 5738 5735 5732 5730 5727 5724 5720 5716 5711 5709 5709 5708 5705 5701 5703 5710 5715 5718 5720 5722 5727 5730 5734 5737
5763 5758 5753 5747 5742 5738 5734 5730 5725 5722 5721 5723 5724 5726 5727 5730 5731 5732 5731 5730 5728 5727 5724 5722 5719 5716 5713 5709 5705 5703 5701 5700 5699 5695 5695 5701 5707 5712 5715 5718 5721 5724 5727
5755 5749 5745 5739 5734 5731 5727 5723 5719 5715 5714 5713 5714 5715 5717 5719 5721 5722 5723 5722 5721 5719 5717 5716 5713 5710 5707 5703 5701 5698 5696 5694 5692 5691 5689 5691 5694 5700 5705 5709 5711 5714 5717